Theta_e
358 357 355 354 352 349 351 353 352 351 349 349 347 347 344 348 360 367 371 366 354 348 347 347 346 344 340 341 342 343 344 343 343 342 342 341 341 341 343 343 343 343 343 344 344 344 345 345 346 346 346 346 346 345 345 344 343 341 340 338 337 335 334 333 332 330 329 328 327 327 327 327 327 327
359 359 356 355 352 349 350 351 351 350 351 349 348 348 346 347 353 355 363 368 354 343 347 349 349 348 343 343 345 346 347 346 345 344 344 345 345 347 347 347 347 347 347 348 347 347 347 347 348 348 349 348 349 349 348 348 347 346 345 343 342 340 338 336 335 334 333 332 330 329 328 328 328 328
359 358 357 356 355 353 352 352 351 351 351 352 351 351 349 349 350 347 352 359 352 344 348 349 347 346 346 348 350 350 349 349 349 347 347 347 347 348 349 349 349 349 349 349 350 351 351 352 352 353 353 352 352 352 351 351 351 350 348 347 346 345 343 342 340 338 337 335 334 333 331 330 329 328
357 358 358 358 358 357 356 355 355 355 355 355 354 355 353 352 353 350 350 354 352 347 348 348 344 344 348 351 352 352 352 352 352 351 350 351 350 350 350 350 351 351 352 353 354 355 355 355 356 355 355 354 354 354 354 352 352 351 350 350 349 348 347 346 345 343 342 341 339 337 336 334 333 332
357 357 358 357 357 357 357 357 357 356 356 357 356 357 357 355 355 354 352 353 353 352 352 352 349 348 352 352 351 353 356 355 355 355 355 355 354 354 355 355 355 356 356 357 358 358 358 357 356 357 356 356 356 355 354 354 354 354 353 353 352 351 350 348 347 346 345 344 343 341 340 338 337 335
358 359 358 357 357 358 358 357 357 357 356 356 357 357 357 357 356 357 356 356 355 356 356 357 355 354 356 355 352 354 355 355 354 354 352 353 354 355 356 356 357 357 356 356 357 357 358 357 357 357 357 357 356 356 355 355 355 355 355 355 354 353 353 351 350 349 347 346 346 344 343 341 340 338
358 359 358 357 357 358 358 358 358 359 358 357 358 359 357 358 357 357 359 358 358 358 358 358 358 358 358 358 355 355 355 354 354 354 353 354 355 356 357 357 357 355 355 355 355 357 357 357 358 358 358 358 358 357 356 356 356 356 355 355 356 354 354 354 353 352 350 349 348 347 345 344 342 341
357 358 357 358 358 357 358 359 359 359 358 358 358 359 358 359 358 358 359 359 359 359 359 359 359 358 358 358 357 356 357 356 355 357 358 358 359 359 359 359 357 356 356 356 357 357 358 358 358 358 359 359 358 357 356 356 355 356 356 356 356 355 354 354 354 354 353 351 350 349 348 346 344 343
357 358 357 356 357 358 359 360 361 359 359 358 358 358 358 358 358 358 358 358 358 359 359 359 358 357 358 358 358 357 358 359 359 360 360 360 360 360 359 358 357 357 357 357 358 358 359 359 360 360 360 359 359 359 358 358 357 356 356 356 355 355 355 354 354 354 353 353 352 351 350 349 347 345
356 357 358 356 356 357 358 359 359 359 359 358 357 357 358 357 356 356 357 356 356 357 357 357 357 358 359 359 359 359 360 361 362 362 361 360 359 358 358 359 358 358 358 358 359 360 360 360 360 361 361 360 360 359 358 357 356 355 355 356 356 355 355 355 354 354 354 353 353 353 352 351 349 348
356 356 357 358 358 357 358 359 358 358 357 357 357 357 358 357 357 357 357 357 357 358 359 359 359 360 361 361 362 361 362 362 361 361 361 360 358 358 359 359 360 360 360 360 361 361 361 360 361 361 361 360 358 356 355 355 355 354 355 356 356 355 355 354 353 352 352 352 352 352 352 351 350 350
356 356 357 358 359 359 357 358 358 359 357 357 357 357 357 358 358 358 358 358 358 359 361 361 361 361 362 363 362 362 362 361 360 359 359 359 360 361 362 363 363 362 362 361 360 361 360 360 360 360 358 357 355 354 355 355 355 355 357 356 355 354 353 352 351 349 349 349 351 352 351 351 350 349
357 357 356 358 358 358 357 357 357 358 358 358 357 358 358 359 358 358 359 359 360 360 361 361 362 363 364 363 363 362 361 360 359 359 360 362 363 363 364 363 360 360 361 360 359 359 360 359 358 357 356 355 355 355 355 355 355 356 356 353 349 349 348 347 347 347 347 348 349 350 351 350 350 349
358 357 357 357 358 358 358 356 356 357 357 357 358 358 358 358 359 358 358 359 360 361 362 363 363 363 364 363 362 361 360 360 359 360 362 364 364 364 362 360 356 357 359 360 360 358 358 358 356 356 356 355 354 354 354 354 354 352 350 347 345 345 344 343 343 344 345 345 346 347 348 348 348 349
358 358 358 358 359 359 358 357 355 355 355 355 356 356 355 357 358 358 358 359 360 361 363 363 364 364 363 363 362 361 361 360 359 360 362 361 362 362 362 360 359 358 359 359 358 357 355 356 356 356 355 355 355 354 353 349 348 345 344 344 343 342 341 342 343 343 344 344 344 345 345 346 346 347
358 358 358 358 358 359 358 357 357 355 354 354 354 354 354 355 354 355 357 358 360 361 362 364 364 363 363 361 360 359 359 357 356 358 357 357 359 362 362 361 360 358 358 358 357 357 355 356 357 356 355 355 355 352 347 344 343 343 342 341 339 340 342 343 343 343 343 343 343 343 344 344 345 346
358 358 358 358 358 357 356 356 355 354 354 354 354 354 355 355 354 354 353 355 356 357 359 360 359 358 356 355 351 348 349 350 352 353 353 355 359 362 362 360 358 358 358 357 358 357 355 356 357 356 355 354 351 345 341 341 343 342 339 338 338 341 342 342 341 341 340 340 341 342 343 345 345 346
357 358 357 357 357 358 357 356 354 353 352 351 352 353 353 354 354 354 354 354 354 354 355 356 354 351 349 348 344 341 343 347 349 350 352 355 360 362 361 358 358 358 358 357 357 357 356 355 355 355 352 349 344 339 340 343 342 340 338 339 340 340 340 339 338 338 338 338 338 339 341 343 344 344
357 357 357 357 357 356 356 355 355 353 352 352 350 350 352 352 352 353 353 354 355 355 355 354 352 348 346 346 346 348 350 350 349 352 356 360 362 361 359 358 358 358 358 357 356 357 355 352 351 349 346 342 337 338 343 343 339 338 339 339 338 336 336 336 337 338 339 339 339 339 339 340 341 341
358 357 357 357 356 356 354 353 352 351 351 352 352 352 352 352 352 353 354 355 357 357 356 355 354 353 353 355 355 355 355 354 355 357 361 362 360 358 357 358 359 357 356 354 354 353 351 349 346 343 339 335 335 341 344 341 338 339 339 337 334 334 336 337 338 339 339 339 339 339 339 340 340 340
357 357 357 355 355 355 354 353 352 350 351 351 353 354 356 356 357 356 356 357 358 359 360 361 361 360 360 361 361 360 358 357 357 359 361 360 358 358 358 358 358 356 354 352 351 349 348 346 342 339 338 337 339 344 343 339 338 338 336 334 334 335 336 337 337 337 337 336 336 335 336 338 339 340
356 356 356 355 356 355 355 354 354 353 353 353 353 354 357 360 361 359 359 360 360 362 363 361 360 360 360 360 361 361 361 359 358 359 359 360 358 358 358 358 357 356 353 351 349 347 347 344 340 339 342 341 342 344 341 337 336 337 334 333 335 335 335 335 334 332 331 329 328 326 327 329 331 334
357 356 357 358 358 357 355 355 355 354 355 354 354 353 356 359 361 359 358 360 362 362 361 359 360 362 362 361 361 361 361 360 360 359 360 360 360 359 360 358 357 355 353 351 349 347 345 341 339 341 344 344 344 342 337 335 335 335 334 334 333 333 333 332 328 322 320 320 320 320 320 321 324 328
355 355 355 356 358 360 359 358 357 357 357 357 356 356 356 357 357 356 357 359 360 360 360 361 363 364 364 363 362 361 361 361 361 361 360 360 361 361 359 358 357 356 355 351 347 343 340 340 341 343 343 344 343 338 334 334 335 334 333 333 331 330 331 327 320 316 316 317 318 318 319 320 322 325
355 354 353 352 353 356 359 359 359 359 359 359 359 358 358 358 356 357 358 359 360 361 363 364 363 362 363 365 364 363 363 362 361 360 359 360 362 361 359 358 356 353 349 345 340 338 339 342 342 341 339 338 337 335 334 335 334 333 332 330 328 327 325 320 316 315 315 316 316 317 317 318 319 321
357 355 355 352 349 350 352 355 358 359 359 360 360 360 360 359 359 359 361 361 361 362 363 362 361 360 361 363 362 362 361 359 356 355 355 357 359 359 356 352 347 343 340 336 335 337 341 342 341 338 335 334 334 334 334 334 333 331 329 326 324 323 321 316 315 315 315 315 315 315 316 316 316 318
357 356 356 354 351 349 348 349 351 353 354 357 358 358 358 360 361 362 363 362 362 362 361 360 359 358 358 358 359 359 359 357 354 352 352 352 353 351 347 341 337 337 336 334 336 340 341 340 337 334 333 333 333 334 334 334 332 329 326 323 322 321 317 315 315 315 315 315 315 314 315 315 315 316
358 357 356 355 354 353 353 352 351 350 351 351 353 354 356 359 361 362 363 363 362 361 361 360 358 358 357 356 355 356 357 356 354 353 352 350 347 342 336 330 330 333 335 336 338 340 338 336 334 332 332 332 333 334 334 332 329 325 323 321 320 319 316 314 314 315 314 315 315 314 314 315 315 316
358 358 357 356 356 356 356 356 356 356 356 354 353 354 356 358 360 362 363 363 362 361 360 359 358 357 356 354 353 354 355 355 354 352 349 345 341 335 327 325 328 334 338 338 337 336 335 333 332 331 332 333 334 334 333 329 325 324 323 320 318 318 316 314 314 315 315 314 314 314 314 314 315 315
358 358 358 358 359 358 358 359 359 360 361 360 359 360 360 359 360 360 361 361 360 359 358 357 356 354 353 353 353 354 355 354 351 349 345 339 334 328 325 328 335 338 336 335 334 334 333 332 332 331 331 331 333 332 329 325 323 323 321 318 317 317 315 314 315 315 315 315 314 314 314 314 314 315
359 359 359 360 361 361 362 362 362 362 361 361 362 362 362 362 361 360 359 359 358 357 355 354 354 354 354 354 354 354 353 349 347 346 343 336 330 327 328 334 338 337 334 333 334 333 332 331 332 329 327 328 330 328 325 323 322 321 319 318 316 316 315 314 315 315 315 315 314 314 313 314 314 315
359 360 360 360 360 361 361 362 361 361 360 360 361 362 362 362 361 360 359 358 355 354 353 354 354 355 354 353 352 350 347 343 343 343 340 333 329 329 333 337 338 334 332 332 333 332 331 331 330 326 324 327 328 326 323 323 321 320 319 317 316 316 315 315 315 315 315 315 314 314 314 314 314 314
359 358 359 359 359 359 359 359 359 359 358 358 359 360 361 361 361 360 358 355 354 353 354 355 356 355 351 348 346 344 343 341 342 340 336 332 331 332 334 336 335 332 330 332 332 331 331 330 328 324 324 327 328 326 324 322 321 320 319 317 316 316 315 315 315 315 315 315 314 313 313 313 314 314
357 358 358 357 357 358 358 357 358 358 358 359 358 358 360 360 359 359 356 354 354 355 355 357 356 351 346 345 344 343 341 341 341 338 335 333 333 333 333 334 333 331 330 331 332 330 329 330 327 323 324 327 328 326 323 321 321 321 319 317 316 316 315 315 315 315 315 315 314 314 313 313 314 314
353 355 357 356 356 357 357 357 357 357 358 359 358 358 358 358 357 356 355 354 355 355 355 357 353 346 343 344 343 340 339 339 337 334 333 334 333 333 333 333 331 330 330 331 330 329 329 328 325 322 323 325 325 324 322 321 321 321 319 317 316 315 315 315 315 315 315 315 314 313 313 313 313 314
352 353 355 356 357 357 357 357 357 357 357 358 358 358 358 357 356 356 355 356 356 354 353 353 349 344 342 341 340 338 337 336 333 331 332 334 334 333 332 331 329 329 330 330 330 329 327 325 323 322 322 323 324 325 323 320 321 321 320 318 316 315 316 315 315 316 315 315 314 313 313 313 313 313
351 352 353 355 357 357 357 358 358 357 358 358 358 359 358 357 357 357 356 357 355 352 350 350 347 342 339 337 337 337 336 333 331 330 331 334 333 332 330 329 328 328 329 330 330 329 327 324 323 322 321 323 328 330 325 320 320 322 321 319 317 316 316 315 315 316 315 314 314 313 312 312 313 312
352 353 354 355 356 357 358 358 358 358 358 357 358 358 357 356 356 356 355 354 352 349 346 345 343 338 334 333 335 335 333 331 330 330 331 333 332 330 328 327 326 327 328 330 330 328 325 323 323 322 321 323 329 331 327 322 321 322 321 319 317 316 316 316 316 316 315 315 314 313 312 312 312 312
352 354 354 355 356 357 358 358 358 358 358 358 358 357 356 355 354 351 349 349 348 345 342 341 339 334 330 331 333 333 331 331 331 331 332 333 331 329 328 326 326 327 327 328 328 327 326 323 323 323 322 322 323 325 324 322 322 322 321 320 318 316 316 316 316 316 315 315 314 314 313 312 312 312
353 355 356 356 356 357 358 359 359 359 359 357 357 356 354 352 350 347 345 347 345 340 337 338 338 334 330 331 333 332 332 332 331 330 331 331 329 329 328 326 326 327 327 326 326 327 326 325 324 324 323 323 322 322 322 323 323 322 321 319 318 316 316 316 315 315 315 314 314 313 313 312 312 312
354 355 356 356 357 357 357 358 358 357 355 354 353 352 349 347 345 343 342 344 343 339 337 338 337 333 331 332 333 332 331 332 331 330 329 329 328 328 328 326 326 327 326 325 324 326 325 324 324 324 324 323 323 322 323 323 322 321 320 319 318 316 316 315 316 315 315 314 313 313 312 312 312 312
355 354 354 355 355 354 354 354 353 352 349 347 346 346 344 343 342 340 339 340 340 338 336 335 333 332 332 331 331 330 330 330 330 329 329 328 328 328 327 327 327 327 326 325 325 324 324 324 324 324 323 324 323 322 322 322 322 320 320 319 318 317 316 316 315 315 314 313 313 313 312 312 312 312
353 351 350 350 350 350 350 350 348 346 344 342 342 341 340 339 338 337 337 337 336 335 334 333 332 332 331 330 330 330 329 329 329 329 328 328 328 328 327 327 326 326 326 325 325 324 324 324 324 323 323 323 323 323 322 323 322 322 320 319 318 317 316 316 316 315 314 314 313 313 312 312 311 312
348 347 346 345 345 345 345 344 343 342 340 339 338 337 336 335 334 333 332 332 331 332 334 334 332 331 330 330 330 330 329 329 329 328 327 327 327 327 326 326 326 326 325 325 325 325 325 325 324 324 324 324 324 323 323 323 323 322 321 320 319 317 316 315 316 316 315 314 314 313 312 312 312 311
342 341 340 340 340 340 340 339 339 338 337 335 335 334 334 334 333 332 331 331 331 332 333 333 332 331 330 330 330 329 328 328 327 327 327 327 327 326 326 326 326 326 325 325 325 325 325 326 325 325 325 325 324 324 324 323 323 322 321 320 320 318 316 316 316 316 315 314 314 313 312 311 311 311
Wind_Speed
11 10 10 10 9 8 6 2 2 3 5 6 4 2 3 4 3 1 2 3 3 5 6 5 6 11 15 14 12 11 13 14 14 16 17 18 19 19 20 21 22 23 24 25 26 27 27 28 29 30 31 31 32 32 33 33 34 35 35 35 35 35 35 34 34 33 33 32 31 30 29 28 28 27
11 11 11 10 9 8 8 7 3 2 2 2 2 3 4 4 4 4 3 3 4 7 8 5 5 5 10 11 12 13 15 16 16 17 18 19 20 20 21 21 22 23 24 25 27 28 29 29 29 30 30 30 30 31 31 32 33 34 35 35 36 36 36 36 36 36 35 35 34 33 32 32 31 30
12 11 11 11 10 9 8 7 6 5 6 7 6 4 5 6 7 7 5 3 5 7 8 8 7 6 7 9 12 15 17 17 17 19 20 21 21 21 22 22 23 24 25 27 28 28 27 27 26 26 26 27 28 29 29 30 32 33 34 35 35 36 36 37 37 37 36 36 36 36 35 35 34 33
14 13 12 11 11 10 9 8 9 9 8 8 8 5 6 8 8 8 8 7 10 13 13 13 13 10 10 11 12 14 16 17 18 20 21 22 22 23 23 23 24 24 25 25 25 25 25 24 24 24 25 26 27 28 29 30 31 32 32 33 34 34 35 35 36 36 36 36 36 36 36 36 36 36
14 14 14 13 12 11 11 10 11 11 9 9 9 7 7 9 10 11 12 11 14 18 16 15 15 14 14 15 14 15 17 17 17 19 20 21 22 22 22 22 22 22 23 24 24 24 24 24 24 24 24 25 26 26 27 27 27 28 28 29 30 31 32 33 33 34 34 35 35 35 35 36 36 36
16 15 15 15 14 13 13 13 13 13 12 11 11 11 11 12 13 13 14 14 15 18 19 18 18 18 17 18 18 17 18 19 19 20 21 20 20 21 20 20 21 22 23 23 23 23 22 22 23 23 23 25 26 25 24 23 23 25 26 26 26 27 28 29 30 30 31 32 32 33 34 34 35 35
19 18 17 16 16 15 15 16 15 14 14 13 13 15 15 15 15 15 16 17 17 18 20 20 19 19 19 20 20 20 20 21 21 20 20 19 19 19 19 20 21 21 20 20 19 19 20 21 21 21 23 26 26 25 23 22 23 26 28 27 27 26 25 25 25 26 27 28 28 29 30 31 32 33
20 21 20 18 17 17 17 17 17 16 15 15 16 16 15 15 15 15 16 18 19 19 19 19 20 20 21 21 22 22 22 21 21 20 20 19 18 18 18 19 20 20 20 20 20 19 20 22 23 24 25 25 24 23 23 24 26 28 28 27 26 25 24 23 23 23 24 24 24 24 25 26 28 29
21 21 22 22 20 18 18 18 18 18 17 16 16 17 16 15 14 14 15 17 19 19 19 21 22 22 22 22 23 22 22 23 22 21 20 19 19 20 20 20 21 21 22 22 22 22 23 24 26 26 24 23 24 26 26 27 27 26 24 23 23 22 22 23 23 23 23 22 22 22 21 22 23 24
23 22 22 22 21 20 20 20 20 19 19 18 17 17 18 16 16 16 16 17 18 20 22 23 23 23 23 23 24 22 20 20 21 21 20 20 20 21 22 22 22 21 21 21 22 22 24 25 25 23 23 25 28 29 27 25 23 20 19 21 21 21 21 22 23 23 23 23 22 21 20 20 20 21
24 23 23 22 22 21 22 22 21 21 20 20 19 19 18 18 18 18 18 18 18 20 21 21 22 23 23 22 23 21 18 17 19 20 22 23 22 22 22 21 19 16 16 19 21 22 23 24 23 24 27 28 27 25 22 21 19 19 20 22 22 22 22 23 23 23 23 22 22 21 21 20 19 18
26 24 24 24 24 23 23 23 23 22 21 21 21 20 19 19 19 19 20 20 20 20 20 21 21 22 22 21 20 19 18 19 20 19 21 23 22 18 16 14 13 13 15 20 23 23 22 24 26 28 28 26 22 20 20 20 21 21 24 26 26 25 25 24 24 25 24 23 22 21 21 20 19 18
28 27 26 26 26 26 25 24 24 24 23 22 22 21 21 21 21 21 21 20 21 21 21 22 22 21 21 21 20 20 19 19 21 19 18 18 15 11 11 13 16 19 19 21 24 25 24 26 28 27 25 22 20 20 20 21 22 23 26 27 26 24 23 23 23 24 23 23 22 22 23 23 22 20
29 28 28 27 27 26 26 25 24 23 24 24 24 23 22 22 22 23 23 22 22 21 21 22 21 19 21 23 22 20 19 18 18 16 12 11 11 11 14 18 22 22 18 17 23 28 27 25 25 23 22 21 19 19 21 22 23 25 25 24 23 22 23 25 24 24 22 21 21 21 22 23 23 23
30 29 29 28 27 26 26 26 25 24 24 24 25 25 25 24 23 23 23 24 24 23 22 23 21 19 21 24 22 19 17 15 14 13 12 13 15 14 13 15 19 21 18 18 23 27 24 21 21 21 21 19 18 19 21 23 24 24 22 21 22 24 25 25 24 24 22 21 20 20 20 21 21 22
31 31 30 30 29 28 27 27 27 27 27 27 26 26 26 26 26 25 24 24 24 24 23 23 22 22 23 24 23 20 18 16 15 16 16 16 16 14 12 13 17 22 23 21 21 22 21 19 20 21 20 18 17 19 22 23 23 21 20 22 24 25 24 24 24 23 23 22 22 21 21 20 19 19
32 32 31 31 30 29 28 28 28 28 28 28 29 29 29 28 28 28 27 27 26 26 26 26 26 27 26 27 28 27 24 21 19 19 19 19 16 14 13 15 19 24 24 20 18 20 21 20 19 21 19 16 17 21 21 20 18 19 22 24 23 22 23 25 25 25 25 25 24 23 21 21 20 17
33 33 33 32 32 31 29 27 27 27 28 28 28 29 30 30 30 30 30 29 29 30 30 31 32 33 32 31 31 29 25 23 22 21 21 19 16 14 15 17 21 23 21 17 14 16 19 20 18 17 16 16 19 20 17 16 18 21 23 22 20 22 24 25 26 26 27 26 26 24 22 21 21 19
35 34 33 33 33 32 31 29 28 27 27 27 29 30 30 30 30 30 30 30 29 30 31 32 33 32 30 29 27 24 22 23 22 19 17 15 14 16 18 20 22 21 18 15 12 12 15 16 14 13 16 20 19 15 14 16 20 21 20 20 21 24 24 25 25 26 26 26 25 24 23 22 21 21
34 35 34 34 34 34 34 33 31 29 27 26 27 30 31 31 31 31 30 28 28 27 27 27 27 26 23 22 21 21 21 21 18 15 13 13 16 18 18 19 20 18 16 13 10 11 12 11 12 16 19 20 15 12 13 18 20 19 19 21 23 24 24 24 24 24 24 24 24 23 22 22 21 20
34 34 35 35 35 35 35 34 33 31 30 29 27 28 29 29 30 30 29 28 26 24 22 21 21 21 21 21 21 22 21 20 17 14 14 17 20 18 14 14 16 16 14 11 8 9 10 11 15 18 17 14 11 10 14 19 18 18 20 22 24 24 23 22 23 24 25 25 26 25 23 22 21 20
33 33 34 35 36 36 35 34 33 31 31 31 30 29 28 27 27 28 28 26 23 20 16 16 18 20 22 24 25 24 22 19 16 16 18 20 20 16 13 13 14 15 12 8 8 12 12 13 18 18 14 10 7 8 17 20 18 18 22 23 22 21 20 22 25 27 28 28 28 28 26 25 22 20
33 31 31 31 33 35 36 35 34 32 31 31 32 31 29 27 28 29 28 24 21 18 16 16 16 15 15 17 20 22 23 20 17 16 17 17 17 17 16 14 11 9 6 5 11 15 13 14 17 16 12 7 3 8 18 19 16 21 24 21 20 20 22 26 29 31 29 28 27 27 26 25 23 21
36 35 33 31 30 31 32 33 33 32 31 31 32 32 31 30 31 31 27 23 19 16 13 11 9 8 8 8 9 12 14 14 13 13 14 15 16 17 15 12 9 7 6 8 14 15 11 12 14 13 10 6 4 12 19 16 15 21 22 20 22 25 26 30 33 33 31 29 27 27 26 24 24 24
36 37 38 37 35 33 32 32 31 31 30 30 30 32 32 33 33 30 24 19 16 12 9 6 4 6 6 3 2 3 6 8 11 12 13 14 14 12 10 9 8 8 10 12 12 11 9 11 11 10 10 9 9 15 18 14 16 20 19 20 25 27 29 32 33 32 32 31 30 30 30 30 28 26
36 36 37 39 40 39 38 37 35 33 32 31 31 32 32 31 31 28 23 18 15 12 8 6 4 4 3 1 2 3 4 7 8 8 7 8 9 9 8 8 7 9 11 9 7 7 8 7 7 9 12 12 12 14 15 13 16 18 19 23 26 26 28 32 31 31 32 34 34 34 33 32 31 28
37 37 37 37 38 38 38 39 39 37 36 34 34 35 33 31 29 27 23 19 15 12 9 8 8 8 8 8 9 9 10 10 9 8 7 8 9 8 7 7 7 7 7 5 4 4 4 3 6 10 12 11 11 11 11 12 15 18 21 24 24 23 28 31 29 30 31 33 35 36 35 35 33 30
37 37 37 36 35 34 33 34 35 35 35 35 36 35 34 32 29 26 22 19 16 14 13 13 14 15 16 17 18 17 16 15 13 11 10 9 7 5 5 5 5 4 2 2 2 1 1 4 8 10 10 8 9 9 8 11 16 18 21 24 22 22 27 32 32 32 33 34 35 36 37 37 36 33
38 36 34 33 32 31 30 30 30 30 31 32 32 31 31 32 29 25 22 19 17 16 17 18 20 22 24 23 21 20 19 18 16 13 9 5 2 3 5 3 1 2 4 4 3 3 4 8 9 9 8 7 8 7 7 11 16 16 18 22 21 20 27 33 34 34 35 35 35 35 34 34 33 32
35 32 31 30 29 29 29 30 30 30 30 29 28 29 30 30 29 26 23 21 20 19 20 20 22 23 22 20 20 20 20 17 14 10 6 2 3 7 6 4 6 7 7 5 5 5 7 9 8 7 8 8 7 7 9 12 14 12 13 18 19 18 25 33 35 36 37 36 35 35 33 31 30 29
35 32 30 27 25 24 25 26 28 29 29 28 28 28 28 28 28 26 23 21 20 20 20 20 20 19 18 19 20 19 16 12 10 8 5 1 4 4 4 7 8 6 6 5 4 6 8 8 7 8 10 9 7 8 10 12 11 9 11 16 17 17 23 29 33 36 38 37 36 37 36 34 32 31
35 32 29 26 22 19 18 18 19 21 22 22 23 24 26 27 26 22 19 18 18 18 18 17 16 17 18 18 17 14 11 9 8 7 4 1 4 5 7 7 6 5 5 4 4 6 7 7 8 10 11 8 7 8 10 11 9 7 9 13 16 19 22 25 27 31 36 39 39 39 38 36 34 32
34 29 26 24 22 20 17 15 12 11 12 14 15 17 20 23 22 20 19 18 17 16 16 15 17 20 19 16 13 10 7 6 6 4 2 3 5 7 6 5 5 5 5 4 5 6 6 7 10 12 9 5 4 4 8 8 6 6 10 12 16 20 22 21 22 25 31 36 38 38 38 36 35 33
33 28 25 23 21 20 18 16 12 10 10 10 11 13 16 18 20 20 20 19 19 18 19 20 22 22 18 13 11 7 5 5 5 3 1 3 4 6 5 4 5 5 4 4 6 5 3 5 9 10 7 3 1 3 6 6 5 6 9 11 15 17 18 18 19 22 27 30 31 33 35 36 36 34
34 28 24 22 21 20 19 17 16 14 13 13 14 14 16 18 20 21 21 22 22 22 23 24 23 19 13 10 9 8 6 7 6 3 3 4 4 4 3 3 5 4 2 3 6 4 2 3 7 8 7 3 0 3 5 7 7 7 8 10 12 14 14 15 18 21 24 27 28 29 30 33 35 36
34 31 27 23 22 22 20 18 18 17 17 17 18 18 19 21 22 23 24 25 25 25 26 26 23 17 12 11 10 9 8 8 7 6 6 7 5 5 5 5 5 3 1 2 5 5 3 3 6 7 6 4 1 2 5 7 8 8 7 8 10 11 12 14 17 20 23 25 27 27 25 26 29 32
29 29 28 25 23 22 21 20 19 19 20 21 21 23 25 26 26 26 26 26 26 26 24 22 20 17 13 12 12 11 10 9 8 7 8 9 8 8 8 5 3 4 3 2 6 8 4 3 4 5 6 4 1 3 6 9 10 9 8 8 8 8 11 15 18 20 22 23 25 26 24 23 26 28
27 27 26 25 24 23 22 21 20 20 22 23 23 24 27 28 28 28 27 26 26 24 20 18 17 16 14 14 14 14 12 11 9 9 10 11 11 12 10 5 4 5 3 3 8 9 4 2 3 3 5 3 1 3 5 8 10 10 8 7 6 8 11 15 17 18 20 21 23 25 25 24 24 28
24 24 24 25 24 24 23 22 21 22 23 23 23 25 28 29 28 27 27 26 24 22 20 20 17 15 13 14 14 13 12 12 11 10 11 12 14 13 9 6 7 7 5 5 10 11 5 1 1 3 4 3 3 4 6 9 11 9 6 6 6 8 10 12 13 14 16 19 21 24 26 26 26 29
21 20 21 22 23 22 21 21 21 22 23 24 25 27 30 31 30 30 30 27 21 19 20 19 15 12 12 13 13 12 11 12 12 10 10 14 15 13 8 7 9 10 8 6 9 10 7 3 0 3 5 5 6 7 8 9 10 7 4 5 6 6 7 8 9 10 12 15 18 21 24 26 27 30
18 18 18 19 20 20 19 18 18 20 22 25 27 28 29 30 30 29 26 20 15 15 17 15 12 12 13 13 12 11 10 11 11 10 10 13 14 12 8 6 8 11 11 8 7 7 5 2 1 3 4 5 6 7 7 8 8 5 4 5 7 6 5 6 7 7 10 13 15 17 18 19 20 24
21 19 16 16 18 17 17 17 18 19 21 23 25 25 25 25 24 21 18 16 16 16 15 15 15 16 15 13 13 13 11 10 10 10 10 11 11 10 8 6 7 9 9 7 4 2 1 2 1 3 4 6 7 7 7 10 11 7 5 6 8 7 4 3 5 5 8 12 14 15 15 14 13 16
21 19 17 17 17 17 17 18 19 21 23 23 23 23 23 22 19 17 17 19 20 18 15 16 19 18 17 15 14 13 12 11 9 8 10 10 9 8 7 6 5 4 4 3 1 2 3 1 1 4 6 7 6 6 9 13 14 11 7 7 8 8 5 3 4 4 5 9 12 13 14 14 12 11
22 21 19 18 18 18 19 20 20 21 21 20 20 21 21 20 18 17 17 20 20 19 17 18 18 17 16 16 15 14 13 11 9 9 9 8 7 6 5 4 4 3 3 2 2 3 2 1 3 6 8 8 7 8 11 14 15 13 8 7 9 10 9 7 6 5 3 5 8 10 11 13 14 13
24 24 23 23 23 23 23 23 22 22 21 21 21 21 21 20 19 18 18 19 19 18 16 14 14 14 14 14 15 15 13 10 9 9 7 4 3 3 2 2 3 4 3 2 4 3 2 3 6 7 9 10 10 10 12 13 13 12 11 9 10 12 11 10 9 7 5 4 5 6 8 10 12 13
Wind_Direction
216 225 236 249 254 249 257 302 57 125 154 154 161 209 198 174 170 170 293 294 286 281 299 331 301 252 233 238 258 269 280 286 281 278 279 282 288 293 296 297 297 297 298 300 302 303 303 302 301 301 300 299 298 297 295 293 292 290 288 287 285 284 283 281 280 279 278 277 277 277 277 277 277 277
213 223 231 240 247 243 249 254 240 223 233 241 261 245 222 218 211 193 209 270 277 276 285 318 347 291 240 246 272 282 289 293 288 283 284 287 291 295 297 297 297 296 296 298 300 301 303 303 303 302 302 301 299 299 298 297 296 295 293 291 289 287 285 284 282 281 279 278 276 276 275 275 275 275
210 221 227 235 242 238 241 245 236 242 259 263 265 251 226 236 245 229 214 240 269 276 287 288 299 309 284 276 285 287 289 293 292 288 286 287 289 290 291 292 293 293 293 295 298 300 302 302 304 304 304 303 302 301 301 300 299 298 297 296 294 292 290 288 286 284 282 280 278 276 275 274 274 274
213 215 222 232 237 230 228 232 231 242 256 251 244 238 230 232 243 242 224 225 260 275 289 293 293 300 303 298 294 290 291 295 296 294 292 293 292 292 293 294 295 296 297 299 301 302 303 304 306 307 307 308 308 307 306 305 305 304 303 301 298 296 294 292 291 289 287 284 282 279 276 274 273 272
216 213 219 230 233 226 226 230 233 240 248 245 236 228 228 231 235 242 236 235 260 279 290 295 298 305 307 304 300 299 299 301 301 299 299 301 300 299 300 301 301 301 301 303 304 305 305 305 306 308 310 313 313 312 311 311 312 312 311 309 307 304 301 298 296 293 291 289 286 283 280 277 274 272
214 215 220 226 227 228 231 233 235 240 243 241 238 236 236 238 236 237 241 240 248 268 282 291 296 301 302 300 301 303 302 302 303 302 301 302 302 302 303 302 301 301 302 304 305 305 305 306 308 309 312 316 317 315 314 315 318 319 316 313 313 312 310 308 304 301 297 294 291 288 284 281 277 274
213 215 221 225 224 225 230 233 234 237 238 237 242 247 245 243 242 239 241 244 244 255 273 285 289 293 296 296 300 304 303 304 306 305 304 303 301 300 299 297 299 301 305 308 310 311 311 311 312 312 315 319 321 319 315 317 321 323 320 315 313 314 317 318 315 312 307 303 299 295 291 286 281 278
218 216 219 223 223 224 227 231 234 235 235 235 240 248 249 246 247 244 241 245 249 253 265 277 283 288 292 293 297 302 303 306 306 303 301 300 299 298 298 298 302 306 308 309 312 314 315 316 316 316 318 321 324 323 320 320 322 323 322 322 320 322 327 328 324 320 316 313 310 305 300 295 289 283
223 221 221 222 222 225 228 229 232 236 237 236 238 243 249 251 251 250 246 248 253 256 262 273 280 284 287 289 294 299 301 302 301 299 297 298 299 299 299 301 303 306 308 310 313 316 317 318 319 319 320 319 320 322 322 322 323 323 322 323 323 324 329 331 328 323 319 317 316 314 310 306 299 292
227 225 226 227 225 226 228 229 231 235 237 238 239 241 246 250 251 253 254 254 257 259 263 269 275 279 283 287 291 296 299 298 297 298 298 298 300 298 296 298 302 305 306 309 314 316 317 318 319 318 317 316 319 323 327 329 330 328 324 321 321 321 324 327 328 326 322 318 316 316 315 313 309 303
230 229 229 230 231 229 230 231 232 235 237 238 242 244 245 247 249 252 255 257 259 261 264 267 272 277 282 285 288 294 300 296 293 294 293 294 300 300 297 299 304 304 303 307 311 314 317 320 320 318 318 321 327 333 338 338 335 332 328 326 325 324 325 327 328 329 327 322 318 316 316 315 312 309
229 231 231 232 233 234 234 234 234 235 237 238 240 243 244 246 248 251 254 256 258 261 263 267 272 277 281 281 284 289 293 290 290 293 292 290 295 303 305 307 312 313 311 312 315 319 324 324 321 321 324 331 342 347 346 341 337 335 332 330 330 330 330 331 332 332 329 324 319 315 315 315 313 309
228 231 232 233 236 237 238 239 238 238 238 238 240 241 242 245 247 250 252 253 255 258 259 264 269 273 275 277 280 283 285 286 290 297 296 291 296 312 318 318 319 320 321 321 320 322 324 322 322 327 333 343 354 353 348 346 344 341 337 337 342 346 347 348 345 341 337 331 324 318 314 314 312 310
228 230 232 234 237 239 240 241 241 241 240 238 239 240 241 244 245 247 249 251 254 255 255 259 264 267 271 275 277 279 283 287 293 299 302 306 316 325 324 321 319 321 328 330 322 320 323 325 329 336 344 350 355 352 351 354 351 346 345 350 357 359 357 355 353 351 348 344 340 332 324 319 314 310
226 228 231 233 235 237 239 241 241 242 241 240 240 240 240 241 244 245 247 250 252 252 254 259 262 263 267 274 277 279 282 288 293 296 304 315 320 323 327 322 317 320 329 330 322 321 329 336 335 340 347 350 352 353 355 356 351 350 354 357 358 357 356 355 354 355 356 355 353 348 340 332 324 316
226 227 230 232 233 234 236 239 241 242 242 242 243 243 242 241 243 245 247 250 251 252 255 259 261 262 267 273 277 278 279 284 289 291 297 308 312 314 317 311 311 319 327 329 324 322 332 340 335 336 344 349 353 355 352 349 350 355 357 355 355 357 358 359 0 1 1 360 358 355 350 345 338 329
226 227 229 231 233 235 236 238 242 244 245 245 245 245 245 244 244 245 247 250 254 256 258 261 264 266 269 273 278 282 282 284 288 290 296 305 305 301 300 300 307 316 323 328 322 315 326 338 333 331 343 353 352 348 349 354 358 357 352 351 357 1 0 1 1 360 358 357 355 353 351 348 346 341
226 228 230 230 232 234 236 238 240 243 245 247 247 246 244 244 245 246 248 250 254 257 260 262 266 271 273 275 282 289 288 284 285 289 297 303 299 291 293 300 307 313 318 323 316 308 321 335 332 333 347 349 342 348 3 11 0 350 350 355 359 359 357 358 1 2 4 3 360 357 355 354 352 351
227 229 230 232 233 234 235 236 237 240 243 246 247 246 244 245 247 248 250 253 255 258 261 264 268 273 277 279 285 291 290 287 288 292 294 294 289 290 296 302 307 311 315 320 313 304 321 339 346 346 344 339 343 5 21 6 353 353 357 359 357 354 356 2 9 11 11 9 7 4 2 360 356 351
229 230 231 233 235 237 238 239 238 240 244 248 248 246 245 246 247 250 253 256 258 261 265 267 270 274 279 282 284 287 287 287 289 286 279 278 287 294 298 301 307 313 321 326 319 309 324 350 356 346 340 341 356 25 15 355 356 1 359 357 359 2 6 10 13 13 12 10 7 5 3 2 359 353
232 233 234 235 236 238 240 242 241 241 243 247 250 249 247 246 247 251 255 258 262 265 268 270 272 275 279 280 280 280 280 281 279 271 268 280 290 293 293 296 303 313 324 331 326 323 336 351 349 347 349 355 12 23 2 356 3 5 360 4 10 11 10 9 6 2 360 357 354 353 352 352 354 354
232 234 236 237 237 238 240 242 242 241 239 242 246 247 247 244 244 250 255 259 262 265 270 277 281 282 281 278 275 275 273 273 272 269 273 284 288 284 281 287 297 310 322 326 329 336 341 344 348 352 356 4 24 8 353 360 10 6 4 12 17 13 6 1 357 352 347 344 342 342 342 341 342 345
230 230 233 235 236 239 241 242 241 239 238 238 241 243 244 244 246 250 254 256 258 263 274 286 291 292 289 280 275 272 268 267 268 271 276 283 282 278 279 284 292 307 319 324 333 339 341 342 352 358 355 358 38 352 352 4 11 4 7 16 16 8 358 353 351 351 350 349 346 346 348 349 350 350
230 231 233 234 234 236 239 240 240 239 237 237 239 240 241 244 249 253 254 255 258 266 276 283 296 320 322 299 282 273 264 262 266 273 278 280 278 276 277 278 281 286 287 306 326 337 341 342 351 360 0 357 341 345 357 10 11 7 15 21 11 1 354 351 353 357 360 1 360 0 3 6 6 3
231 233 235 236 236 235 236 237 238 238 237 237 238 239 241 245 251 254 256 257 258 261 263 264 301 351 358 333 274 259 257 260 265 269 269 266 265 264 261 261 269 278 286 301 324 339 342 343 349 1 8 5 351 348 355 6 13 17 22 17 8 1 355 355 359 2 5 9 12 12 12 12 13 11
229 233 236 239 240 238 237 237 237 238 239 239 239 241 244 248 251 253 254 255 252 248 252 265 293 333 354 280 225 234 247 247 245 244 236 227 226 226 231 246 263 278 290 306 337 345 335 341 360 8 9 7 358 352 352 359 12 18 18 14 11 4 360 2 5 5 7 11 15 16 15 12 11 11
229 232 236 240 244 244 242 241 241 241 242 243 243 245 247 249 249 248 248 248 246 246 257 272 279 283 281 271 265 264 258 244 230 222 219 219 218 219 229 246 254 265 289 322 351 337 324 8 22 13 11 6 355 350 354 2 12 16 16 16 14 6 5 8 9 8 8 10 11 13 14 13 9 7
230 233 236 240 244 246 246 247 247 247 247 247 248 249 249 247 245 243 240 240 242 247 257 266 271 272 270 264 260 258 255 247 235 232 237 237 233 235 248 258 261 271 316 4 19 354 26 37 22 13 13 5 349 348 358 14 24 24 18 15 12 8 12 14 12 10 10 10 9 9 9 10 8 4
231 233 237 241 245 247 249 251 251 250 249 249 250 251 250 246 241 238 237 238 242 249 255 258 259 259 258 255 252 249 245 239 230 226 228 223 232 301 314 311 334 79 89 89 79 48 21 18 17 17 19 10 359 9 27 34 36 34 20 12 11 12 16 18 16 12 10 10 9 7 6 6 5 2
229 232 236 240 243 246 249 250 249 249 249 247 246 246 245 242 239 237 239 241 244 247 248 247 248 249 247 245 243 240 234 226 218 215 216 221 343 342 352 46 93 96 85 68 51 31 22 26 31 32 28 25 34 54 55 46 45 41 21 15 17 18 18 19 18 13 10 9 8 6 6 7 5 4
226 229 231 234 237 240 244 246 247 247 246 244 242 239 239 239 239 238 240 243 245 244 241 239 240 241 239 236 234 228 218 206 201 211 219 271 4 9 61 89 94 82 64 59 51 32 33 46 52 35 23 31 67 77 52 43 50 46 21 18 25 26 21 20 19 15 10 7 7 7 7 8 7 7
224 226 227 229 231 234 238 242 245 245 242 241 240 237 234 234 233 232 235 236 238 239 235 230 232 234 233 230 221 208 196 189 195 206 203 100 67 95 101 90 81 68 60 73 66 46 53 63 46 26 21 38 89 78 41 40 56 42 17 22 29 28 25 23 21 16 10 7 7 8 8 8 7 7
220 221 222 223 225 227 231 236 241 242 238 236 235 232 229 225 221 222 226 225 227 227 215 209 221 227 223 212 200 189 180 179 185 185 153 94 92 102 92 75 85 81 63 75 82 69 74 61 31 24 30 56 95 57 23 33 53 25 12 22 26 26 27 25 22 20 16 11 8 6 6 8 8 6
215 217 217 217 220 223 226 228 227 224 222 220 218 215 215 213 212 216 221 222 218 207 194 201 219 221 209 195 192 191 180 174 178 179 128 106 103 97 79 74 102 94 63 93 108 97 87 50 27 31 51 70 51 1 3 18 36 15 8 18 22 23 25 23 21 22 22 19 14 7 4 5 8 8
211 214 216 216 220 223 225 225 222 220 217 213 210 207 207 210 213 214 214 211 205 195 193 206 216 212 201 201 203 198 183 174 178 188 170 148 128 110 99 99 109 101 69 113 125 127 130 60 38 48 73 92 342 329 346 0 12 7 7 16 19 19 20 19 18 20 23 23 21 14 6 4 7 10
209 212 215 217 220 222 223 222 222 222 219 215 213 211 208 208 209 206 203 203 201 197 198 206 210 207 209 211 199 189 190 194 203 212 192 178 171 153 136 114 108 128 175 148 150 164 160 80 55 61 80 93 51 327 341 355 1 357 358 13 19 16 13 12 14 19 23 24 23 19 10 4 7 12
208 212 213 216 220 221 220 220 220 223 225 224 220 214 208 204 200 198 198 200 200 196 196 202 206 205 202 195 185 185 196 206 213 211 197 194 189 166 147 130 144 189 216 204 184 186 168 85 63 60 66 75 64 308 334 353 358 351 344 356 11 14 6 4 7 14 19 23 24 22 17 10 10 14
210 211 212 214 217 218 219 220 220 223 227 226 219 209 202 196 192 190 191 192 192 190 189 192 195 193 189 189 188 189 197 208 218 223 220 208 184 160 150 150 171 184 198 187 182 184 171 75 62 44 45 59 232 278 312 335 347 350 342 335 343 357 0 2 6 10 13 16 21 23 22 19 15 13
214 213 212 213 215 217 218 219 221 224 224 219 210 200 191 186 183 179 177 180 185 185 178 177 182 185 186 190 192 194 201 211 219 224 218 196 171 157 158 169 174 181 191 175 173 181 194 162 73 24 10 1 338 326 312 310 319 328 321 303 312 335 351 0 7 9 10 13 15 18 20 21 19 15
211 211 214 216 216 215 215 216 219 222 217 209 201 194 186 181 177 173 170 173 179 177 169 169 179 189 185 182 186 193 202 208 210 206 189 174 166 163 169 180 185 191 198 184 174 185 203 218 283 353 352 351 345 335 319 304 298 293 273 272 293 318 339 356 6 8 11 15 16 17 21 22 20 17
200 201 205 209 208 207 206 207 208 209 203 194 188 184 179 174 171 166 164 166 174 180 180 182 188 190 182 175 177 183 189 196 200 193 176 168 169 171 178 194 197 198 208 215 198 192 211 247 307 340 336 329 323 319 312 302 293 280 257 267 282 295 321 351 2 6 13 19 21 22 25 25 22 18
189 186 184 187 190 189 190 191 190 186 180 172 168 167 165 161 159 158 160 169 179 187 191 187 183 183 183 179 178 178 173 170 176 181 177 172 171 177 192 208 202 200 212 219 206 192 293 292 346 8 342 315 301 295 295 299 300 293 262 255 267 272 285 334 349 358 15 22 24 27 30 29 24 16
175 171 167 169 171 171 173 175 173 169 165 159 156 156 155 153 156 163 170 173 173 173 176 178 180 185 188 183 179 178 174 168 167 174 176 173 175 187 207 217 212 207 207 195 169 5 347 286 308 347 342 329 308 289 290 300 302 294 264 243 250 253 246 257 298 323 2 16 18 26 33 35 34 28
160 156 152 152 153 155 158 157 154 155 154 152 154 157 157 159 165 171 169 167 168 170 176 181 184 187 186 181 177 177 176 170 161 158 160 167 186 207 225 245 250 233 200 195 284 321 332 311 318 331 334 332 320 304 301 305 302 294 276 246 236 238 234 232 248 269 309 350 1 14 27 30 31 32
143 140 137 137 139 141 142 142 141 141 141 143 148 154 158 160 164 166 167 170 177 181 182 184 189 192 188 182 179 179 174 159 146 146 149 159 199 227 249 270 254 235 230 267 293 302 307 310 317 325 328 325 320 317 316 311 299 289 285 268 239 231 231 231 233 236 245 284 329 2 20 22 21 25